DW5434 Weather Reports


time (UTC)temp
F
wind
direction
speed
knots
gust
knots
rain 1hr
in
rain 24hr
in
rain mn
in
humidity
%
barometer
mb
20260505194526 72 65 7.8 10.4 0.00 0.00 0.00 40 1010.3
20260505193026 72 25 8.7 12.2 0.00 0.00 0.00 40 1010.3
20260505191531 71 23 5.2 7.8 0.00 0.00 0.00 44 1010.4
20260505190022 70 330 4.3 8.7 0.00 0.00 0.00 44 1010.4
20260505184523 70 1 7.0 9.6 0.00 0.00 0.00 45 1010.3
20260505183019 70 20 5.2 10.4 0.00 0.00 0.00 46 1010.3
20260505181516 70 48 5.2 9.6 0.00 0.00 0.00 46 1010.2
20260505180014 69 266 3.5 8.7 0.00 0.00 0.00 47 1010.2
20260505174515 68 326 3.5 7.8 0.00 0.00 0.00 49 1010.2
20260505173009 68 273 0.0 9.6 0.00 0.00 0.00 50 1010.1
20260505171514 67 56 5.2 8.7 0.00 0.00 0.00 50 1010.1
20260505170006 66 296 7.0 10.4 0.00 0.00 0.00 54 1010.0
20260505164503 66 284 5.2 11.3 0.00 0.00 0.00 54 1010.0
20260505163002 65 322 6.1 9.6 0.00 0.00 0.00 53 1009.9
20260505161559 65 316 5.2 9.6 0.00 0.00 0.00 54 1009.8
20260505153055 63 294 5.2 9.6 0.00 0.00 0.00 58 1009.7
20260505151548 62 277 4.3 7.0 0.00 0.00 0.00 61 1009.5
20260505124514 0 0.0 0.0 0.00 0.00 0.00 1008.2
20260505123009 0 0.0 0.0 0.00 0.00 0.00 1008.2
20260505121507 55 240 5.2 7.8 0.00 0.00 0.00 68 1008.1
20260505120003 56 245 6.1 9.6 0.00 0.00 0.00 67 1007.9
20260505114602 57 255 7.0 11.3 0.00 0.00 0.00 67 1007.8
20260505113101 56 252 7.8 11.3 0.00 0.00 0.00 67 1007.7
20260505111602 57 243 7.0 10.4 0.00 0.00 0.00 66 1007.8
20260505110111 58 256 8.7 11.3 0.00 0.00 0.00 65 1007.6
20260505101551 60 252 7.8 10.4 0.00 0.00 0.00 62 1007.6
20260505100050 59 256 7.0 11.3 0.00 0.00 0.00 63 1007.4
20260505094548 60 250 7.8 12.2 0.00 0.00 0.00 62 1007.1
20260505093049 60 249 8.7 13.0 0.00 0.00 0.00 63 1007.1
20260505091553 59 259 7.8 11.3 0.00 0.00 0.00 64 1007.2
20260505090046 59 231 7.8 9.6 0.00 0.00 0.00 64 1007.2
20260505084553 58 251 7.8 10.4 0.00 0.00 0.00 65 1007.2
20260505083055 59 233 7.8 10.4 0.00 0.00 0.00 64 1007.1
20260505081543 58 250 7.0 10.4 0.00 0.00 0.00 65 1007.2
20260505080044 58 236 6.1 8.7 0.00 0.00 0.00 64 1007.2
20260505074539 60 225 7.8 8.7 0.00 0.00 0.00 62 1007.0
20260505073037 59 224 5.2 8.7 0.00 0.00 0.00 62 1007.1
20260505071535 59 236 5.2 9.6 0.00 0.00 0.00 62 1007.1
20260505070032 59 207 5.2 9.6 0.00 0.00 0.00 63 1006.8
20260505064537 59 201 6.1 9.6 0.00 0.00 0.00 61 1006.8
20260505063031 58 181 6.1 7.8 0.00 0.00 0.00 64 1006.9
20260505061530 58 246 0.9 3.5 0.00 0.00 0.00 66 1006.9
20260505060029 59 226 5.2 7.0 0.00 0.00 0.00 64 1006.8
20260505054543 59 197 1.7 7.0 0.00 0.00 0.00 62 1006.7
20260505053026 61 204 5.2 7.0 0.00 0.00 0.00 59 1006.7
20260505051524 61 208 3.5 6.1 0.00 0.00 0.00 56 1006.7
20260505041520 63 276 5.2 7.8 0.00 0.00 0.00 52 1006.1
20260505040021 63 273 6.1 7.8 0.00 0.00 0.00 51 1005.9
20260505034525 64 270 5.2 7.0 0.00 0.00 0.00 49 1005.8
20260505033018 66 284 5.2 7.8 0.00 0.00 0.00 45 1005.7
20260505031517 67 282 4.3 7.0 0.00 0.00 0.00 40 1005.5
20260505030036 69 259 1.7 1.7 0.00 0.00 0.00 38 1005.2
20260505024517 71 256 0.9 1.7 0.00 0.00 0.00 35 1005.2
20260505023014 73 356 1.7 2.6 0.00 0.00 0.00 32 1005.2
20260505021518 75 35 1.7 3.5 0.00 0.00 0.00 30 1005.2
20260505020013 75 44 2.6 5.2 0.00 0.00 0.00 28 1005.3
20260505014519 76 30 3.5 7.0 0.00 0.00 0.00 26 1005.4
20260505013018 76 46 4.3 7.8 0.00 0.00 0.00 26 1005.5
20260505011509 76 56 5.2 7.8 0.00 0.00 0.00 25 1005.5
20260505010008 76 41 3.5 7.0 0.00 0.00 0.00 24 1005.7
20260505004520 77 3 5.2 9.6 0.00 0.00 0.00 24 1005.8
20260505003006 77 18 7.0 10.4 0.00 0.00 0.00 23 1005.8
20260505001505 77 27 6.1 8.7 0.00 0.00 0.00 24 1005.8
20260505000004 77 20 6.1 9.6 0.00 0.00 0.00 24 1005.9
20260504234505 77 5 4.3 9.6 0.00 0.00 0.00 23 1006.0
20260504233002 77 37 4.3 9.6 0.00 0.00 0.00 24 1006.1
20260504231626 77 328 6.1 10.4 0.00 0.00 0.00 25 1006.2
20260504230100 77 1 6.1 10.4 0.00 0.00 0.00 26 1006.2
20260504224613 77 16 6.1 10.4 0.00 0.00 0.00 24 1006.3
20260504223057 77 46 8.7 12.2 0.00 0.00 0.00 25 1006.4
20260504221644 77 54 6.1 10.4 0.00 0.00 0.00 26 1006.5
20260504220054 77 349 7.8 12.2 0.00 0.00 0.00 26 1006.7
20260504214552 76 15 8.7 12.2 0.00 0.00 0.00 26 1006.8
20260504213057 77 48 7.0 12.2 0.00 0.00 0.00 25 1006.8
20260504211550 77 343 5.2 9.6 0.00 0.00 0.00 27 1006.8
20260504210051 76 49 5.2 11.3 0.00 0.00 0.00 24 1007.0
20260504204546 76 93 2.6 9.6 0.00 0.00 0.00 29 1007.1
20260504203046 76 335 4.3 8.7 0.00 0.00 0.00 29 1007.1
20260504201544 76 332 4.3 9.6 0.00 0.00 0.00 30 1007.3
20260504200042 75 333 3.5 8.7 0.00 0.00 0.00 30 1007.3